Temperature
20 19 19 20 20 20 19 19 18 19 20 19 18 18 19 21 22 21 21 20 20 20 20 20 19 18 17 16 14 13 13 12 12 11 11 12 12 12 11 11 11 11 11 10
20 19 20 20 20 19 19 18 18 20 20 19 17 17 19 21 21 20 20 20 19 19 19 19 19 18 17 16 15 13 13 12 12 13 13 13 13 13 12 11 11 10 10 10
19 20 20 19 19 19 19 18 18 18 17 18 18 17 21 21 21 21 20 19 18 18 18 18 18 17 16 15 15 14 13 12 12 12 11 11 10 10 10 11 11 10 10 10
20 20 19 19 19 19 18 18 17 17 16 16 18 16 19 20 19 19 19 19 18 18 17 17 17 16 16 15 14 13 12 12 11 10 10 10 10 11 12 12 11 10 9 9
19 19 18 18 18 18 18 17 16 16 15 15 17 17 18 20 19 18 18 19 18 17 17 16 16 15 15 14 14 13 12 11 10 9 9 9 9 10 10 9 9 8 8 8
19 18 18 18 17 17 17 16 16 16 15 15 18 18 18 20 20 19 18 18 18 17 16 15 15 15 14 14 14 13 12 11 10 9 9 8 8 8 8 7 7 7 7 7
19 18 17 17 17 16 16 16 16 16 14 16 18 17 17 20 19 18 18 18 17 16 15 14 14 14 14 14 13 13 13 12 11 10 9 8 8 7 7 7 6 6 6 6
20 18 17 16 17 16 18 17 16 16 17 17 18 16 18 20 20 19 18 17 16 15 15 14 14 13 13 13 13 13 13 13 12 11 10 9 8 8 7 7 6 6 6 5
19 18 17 17 17 17 17 17 17 16 16 15 17 19 20 20 18 18 17 17 15 15 14 14 13 13 13 13 13 13 13 13 12 12 11 11 10 9 8 8 7 7 6 6
18 18 17 15 15 15 15 16 16 15 15 15 17 18 18 19 18 17 16 16 15 14 14 13 13 13 13 12 12 12 12 12 12 12 11 11 10 10 9 9 8 8 7 6
18 17 17 15 15 16 14 15 15 15 16 14 14 16 19 18 18 17 16 15 14 14 13 13 13 12 12 12 12 12 11 11 11 11 11 11 10 10 9 9 9 8 8 7
18 16 16 17 16 16 17 17 16 15 15 15 14 15 19 18 17 16 15 15 14 13 13 13 12 12 12 11 11 11 11 10 10 10 10 10 9 9 9 9 8 8 7 7
17 15 15 16 14 14 15 16 16 15 14 13 13 15 18 18 17 16 15 15 14 13 13 12 12 11 11 11 11 10 10 10 9 9 9 9 9 8 8 8 8 7 7 6
15 14 15 15 15 16 15 16 15 14 13 13 13 15 16 16 15 14 14 14 13 13 13 12 12 11 11 10 10 10 9 9 9 8 8 8 8 8 7 7 7 6 6 6
14 13 14 15 15 15 15 15 15 14 14 13 14 14 15 15 13 13 13 13 13 13 12 12 11 10 10 10 9 9 9 8 8 8 8 7 7 7 6 6 6 6 5 5
13 13 13 13 14 14 14 14 14 14 14 14 14 14 15 14 13 13 12 12 12 12 11 11 10 10 9 9 8 8 8 7 7 7 7 7 6 6 6 5 5 5 5 4
13 12 12 11 13 13 12 14 14 14 15 15 13 14 13 13 12 12 12 12 12 11 10 10 9 9 8 8 8 7 7 7 7 6 6 6 5 5 5 4 4 4 3 3
13 12 11 10 11 9 13 16 15 15 14 14 14 13 12 12 12 12 12 11 10 9 9 9 8 8 7 7 7 6 6 6 6 6 5 5 4 4 4 3 3 2 2 1
11 11 11 10 9 10 13 14 14 13 13 13 12 12 12 12 11 11 11 10 9 9 8 8 7 7 6 6 6 5 5 5 5 5 4 4 3 3 2 2 2 1 1 0
9 10 9 9 8 8 13 12 13 12 11 11 11 11 11 10 7 8 9 8 8 8 7 7 6 6 6 5 5 5 4 4 4 4 3 3 3 2 1 1 0 0 -0 -0
8 8 8 8 8 9 13 12 12 11 11 11 11 10 9 8 7 8 8 7 7 6 6 6 5 5 5 5 4 4 4 3 3 3 2 2 1 1 0 0 -0 -1 -1 -1
10 9 8 8 8 9 12 12 11 11 12 11 10 9 8 8 7 7 6 6 6 5 5 5 4 4 4 4 4 3 3 3 2 2 1 1 0 -0 -0 -1 -1 -1 -1 -2
11 11 11 10 10 13 13 13 12 11 10 9 8 8 7 7 6 6 5 5 5 4 4 4 4 4 4 3 3 2 2 2 1 0 0 -0 -1 -1 -1 -1 -2 -2 -2 -2
12 12 11 10 11 12 13 12 11 10 8 8 7 7 6 5 5 5 4 4 4 4 4 3 3 3 3 2 2 1 1 0 -0 -1 -1 -1 -1 -1 -2 -2 -2 -2 -2 -2
10 10 9 9 10 11 11 10 9 8 7 7 6 6 5 4 4 4 3 3 3 3 3 3 2 2 1 1 1 0 -0 -1 -1 -1 -1 -2 -2 -2 -2 -2 -2 -3 -3 -3
9 9 8 8 9 8 8 8 7 7 6 6 5 5 4 4 3 3 3 3 3 2 2 2 1 1 1 0 -0 -1 -1 -1 -2 -2 -2 -2 -3 -3 -3 -3 -3 -3 -3 -3
Wind_Speed
6 5 7 5 4 7 8 9 12 12 3 2 10 16 18 12 5 7 8 9 8 7 7 2 7 12 12 13 12 14 15 15 13 12 13 13 14 11 9 13 20 23 24 25
6 8 4 5 4 5 8 10 11 9 5 6 10 14 15 2 6 5 6 8 9 10 10 8 4 6 9 12 12 13 14 16 15 14 12 10 9 9 9 8 15 22 23 24
10 2 3 3 6 8 9 9 8 8 10 9 8 9 2 7 10 8 9 9 8 8 9 8 5 3 6 9 11 11 13 14 15 13 7 7 7 7 9 11 12 14 22 24
6 2 2 3 7 6 7 4 6 7 7 6 6 6 6 7 9 9 9 8 8 7 7 6 6 3 3 7 8 10 10 11 12 12 11 12 12 15 14 10 9 10 18 20
5 4 2 5 3 4 4 4 6 7 6 6 6 5 8 5 8 8 9 8 7 8 8 8 6 5 2 3 6 7 8 9 10 12 13 13 14 12 8 8 10 12 12 16
7 3 1 2 2 1 6 7 9 4 3 4 4 5 6 2 7 8 8 8 8 9 10 10 9 7 5 2 2 4 6 8 9 11 12 14 15 13 11 11 11 11 10 12
7 7 4 1 4 6 5 5 3 2 4 5 2 3 7 2 8 9 8 8 9 9 9 9 9 9 8 5 0 4 6 7 8 10 12 13 14 14 14 13 11 11 10 11
4 5 7 6 2 3 3 3 3 4 4 4 3 6 6 3 7 9 8 8 8 8 7 8 8 7 7 6 3 1 5 7 8 9 10 11 12 11 11 13 12 12 11 11
5 2 4 3 1 2 4 2 2 3 6 6 6 6 4 2 7 8 8 7 7 7 7 7 7 6 5 5 4 2 2 5 7 8 9 10 11 11 12 12 12 11 11 10
4 5 5 5 3 3 4 6 2 4 4 5 6 7 3 3 3 5 6 6 6 6 6 6 6 6 5 4 3 1 1 3 4 6 7 7 9 11 11 11 13 13 13 11
3 5 2 5 8 8 6 4 5 4 5 3 5 5 4 3 4 5 5 6 6 5 5 4 5 6 6 6 5 3 3 3 4 5 6 7 8 9 10 10 12 12 12 12
1 3 6 6 3 4 2 4 4 5 6 5 5 7 3 5 5 6 6 5 5 4 3 4 5 7 7 7 7 6 5 4 4 5 6 7 8 8 9 11 11 11 12 12
1 3 5 3 3 3 1 4 5 5 5 6 6 8 3 4 6 7 6 5 4 3 3 4 5 6 7 8 8 7 7 6 5 5 6 7 8 8 10 10 11 11 12 12
2 4 6 7 9 6 6 7 7 8 7 9 12 15 14 13 8 7 7 6 6 6 6 5 5 6 8 8 8 8 8 7 7 7 7 8 9 9 9 9 9 10 10 11
2 5 9 11 12 12 13 14 12 13 13 15 17 18 17 7 6 7 8 8 8 9 8 6 7 7 8 8 8 8 8 9 8 8 9 9 9 9 9 9 9 10 11 12
4 5 7 11 11 13 18 18 16 16 15 15 16 16 4 5 6 7 9 10 11 9 8 9 10 10 9 9 9 9 9 9 9 10 10 10 10 9 9 10 10 11 11 11
6 5 4 5 7 11 11 12 10 7 6 7 9 6 4 6 7 7 9 11 9 9 11 11 11 10 9 9 9 9 9 9 10 11 12 11 10 9 10 10 11 11 12 11
6 5 4 5 6 9 8 3 1 2 6 8 7 4 7 6 7 7 9 8 10 11 12 11 10 9 8 8 9 9 9 10 11 12 12 11 10 10 10 11 11 12 11 11
3 5 4 3 5 10 10 4 2 2 5 5 5 7 8 9 9 7 7 10 11 11 11 9 8 8 9 10 10 10 10 11 12 12 12 10 10 10 11 11 12 11 11 10
2 3 5 5 5 7 4 3 3 2 2 7 8 8 9 10 9 7 10 12 12 11 9 9 8 8 10 10 11 11 12 12 12 12 11 10 10 11 12 12 12 10 10 10
4 4 6 6 6 9 3 4 1 2 2 4 7 7 8 7 8 10 12 11 10 10 9 9 9 9 10 11 11 13 13 13 12 11 11 11 11 11 12 12 10 11 10 10
7 7 7 6 7 8 3 2 1 5 6 7 8 8 9 10 11 11 11 11 10 9 9 9 9 10 11 11 12 14 14 13 12 12 12 12 11 11 11 11 11 10 10 10
7 5 4 6 7 2 2 3 5 6 7 7 7 8 9 10 10 10 9 9 9 9 9 9 10 12 12 12 12 15 14 13 13 13 12 12 11 10 10 11 12 10 9 9
4 4 4 6 6 7 9 9 8 8 8 8 8 8 8 8 9 9 8 8 9 9 10 10 11 13 14 13 12 13 14 14 14 13 13 11 11 11 11 9 8 9 9 9
6 5 5 10 10 10 6 7 10 9 9 9 8 7 7 7 8 8 8 9 9 10 9 10 11 14 16 14 13 13 14 14 14 13 12 11 10 12 11 10 9 10 9 11
5 7 8 9 7 6 7 9 10 9 9 8 8 8 7 6 8 9 9 9 9 11 11 12 13 14 15 15 15 14 13 12 13 12 11 10 10 10 11 12 12 15 16 21
Wind_Direction
210 236 258 301 7 346 333 309 298 296 352 328 278 288 297 305 352 22 23 18 10 354 346 357 178 179 175 178 181 179 183 186 187 193 199 203 210 211 209 207 204 200 199 201
246 245 283 18 17 317 290 286 288 299 16 318 281 290 285 255 92 74 56 48 35 17 13 15 69 147 170 178 183 182 185 188 193 201 203 206 206 211 214 210 210 204 201 200
257 251 79 345 298 279 279 286 309 327 327 279 268 299 243 127 110 93 73 64 54 38 28 18 29 144 174 186 190 195 192 193 196 196 195 202 207 212 216 215 215 209 205 204
281 69 65 290 276 280 287 13 347 324 322 309 335 306 284 156 121 105 84 64 51 42 40 33 23 12 208 205 194 196 197 197 194 192 201 205 212 221 222 218 216 212 211 210
277 134 213 271 323 360 307 348 288 290 290 287 252 233 279 185 130 112 96 73 52 41 37 32 33 13 343 202 193 195 199 203 197 198 204 213 224 231 232 221 219 217 216 216
252 122 221 341 40 266 303 290 253 238 261 264 225 208 287 14 106 103 86 68 49 38 33 26 21 17 19 48 162 189 207 218 209 206 209 214 225 229 231 229 227 223 221 219
209 175 147 122 256 195 238 290 302 228 219 228 114 231 253 347 88 90 79 61 50 44 37 26 21 16 15 16 167 196 214 233 227 219 219 222 225 227 233 234 232 229 228 224
276 180 166 188 268 338 296 311 313 301 294 324 237 239 252 94 97 100 93 77 58 51 43 33 24 19 15 15 11 236 222 230 230 228 228 228 228 229 235 235 235 236 235 229
323 77 113 123 92 277 279 224 53 324 289 270 250 242 255 113 107 95 85 71 63 55 47 34 20 16 16 15 5 351 282 246 235 231 232 231 229 230 234 234 235 240 241 234
320 300 168 146 182 227 289 328 303 244 268 280 275 256 226 134 79 81 79 75 73 65 48 32 10 1 1 0 340 347 312 277 255 243 239 238 234 234 235 234 237 239 241 238
290 277 209 169 203 195 177 207 229 260 274 275 289 281 6 30 74 67 69 75 77 66 44 22 359 349 352 353 343 333 310 287 270 257 253 253 249 243 240 241 242 241 241 237
231 300 277 251 74 63 145 246 244 249 265 260 275 276 322 100 83 67 65 63 72 66 33 3 353 345 345 342 334 332 322 309 290 273 265 262 260 255 250 248 248 244 243 240
75 264 282 236 65 31 220 232 240 265 286 266 264 268 301 5 27 58 60 38 34 25 356 341 343 336 334 331 327 327 326 324 312 298 285 278 273 266 260 258 255 249 246 244
16 256 248 269 295 317 281 262 240 234 248 256 249 271 297 317 349 38 33 15 3 342 324 320 329 328 326 320 321 324 325 321 312 303 294 288 282 276 272 272 270 265 257 252
227 255 263 273 288 296 290 281 272 262 259 265 274 282 293 327 36 27 10 354 334 315 312 327 330 322 316 316 319 322 318 312 309 304 298 289 285 284 284 283 280 276 269 262
212 267 281 275 278 280 278 271 265 264 260 262 273 279 302 69 35 11 353 330 311 315 335 337 327 318 316 318 319 318 312 309 310 305 295 289 287 285 283 281 280 277 272 267
197 219 278 278 297 302 276 263 247 236 247 266 275 296 27 22 13 352 325 309 325 343 337 324 316 316 319 319 318 313 306 309 309 301 296 293 289 286 283 282 282 277 273 267
249 256 267 280 301 254 250 294 147 280 291 294 298 3 36 9 346 322 311 341 346 335 325 319 319 321 319 317 313 306 307 308 303 298 295 293 291 288 287 284 281 279 274 267
288 224 237 251 265 277 276 294 32 5 296 333 20 21 352 339 330 316 343 353 334 325 321 319 323 323 321 314 309 309 306 300 297 295 294 295 296 293 291 288 284 281 278 273
316 221 216 217 230 252 289 83 62 24 281 34 16 350 340 347 327 313 338 331 324 323 323 326 327 323 315 309 311 309 301 298 296 295 296 300 300 297 294 290 288 287 284 280
163 192 214 231 239 260 286 138 110 241 291 2 350 345 347 335 305 311 324 324 322 321 325 325 321 314 305 306 307 302 299 298 298 302 303 302 298 295 294 294 292 292 289 287
181 191 198 199 221 253 141 134 253 303 340 353 1 356 338 320 315 318 321 323 326 326 322 318 313 305 302 303 304 301 300 301 304 304 301 298 296 297 297 294 294 290 290 291
214 220 217 208 224 273 122 317 325 355 356 1 352 336 326 318 316 320 321 322 319 312 308 307 305 303 301 301 301 302 304 308 308 305 301 299 298 296 293 293 296 296 292 290
248 232 253 281 284 317 324 330 356 10 1 346 337 330 327 317 316 317 315 310 306 301 302 304 304 303 303 303 302 303 308 309 306 304 302 299 299 298 295 291 290 291 289 287
281 321 286 273 285 297 308 357 357 351 345 335 331 328 322 314 307 306 302 297 297 300 299 300 300 301 303 309 309 306 304 305 302 299 298 298 297 296 297 292 289 287 277 278
239 253 261 273 309 322 324 341 343 339 331 329 325 318 313 304 295 292 289 290 295 300 302 304 303 303 305 306 303 302 301 301 303 304 303 300 298 297 295 296 295 287 285 291
Height
1528 1531 1531 1525 1523 1524 1525 1527 1527 1518 1510 1512 1511 1504 1494 1490 1489 1488 1488 1488 1488 1487 1486 1485 1485 1487 1490 1492 1495 1496 1497 1498 1500 1501 1501 1502 1503 1505 1507 1508 1509 1510 1511 1513
1528 1530 1524 1522 1522 1524 1526 1527 1524 1515 1509 1512 1509 1503 1491 1487 1488 1489 1490 1490 1489 1488 1486 1485 1485 1486 1487 1488 1490 1491 1491 1492 1492 1494 1495 1496 1498 1499 1500 1501 1502 1502 1503 1504
1527 1522 1522 1523 1524 1525 1524 1525 1522 1521 1516 1508 1509 1504 1489 1486 1487 1489 1491 1491 1491 1490 1488 1487 1486 1486 1486 1486 1486 1487 1487 1487 1487 1489 1491 1492 1492 1492 1492 1491 1492 1494 1495 1495
1521 1520 1522 1524 1524 1522 1526 1521 1522 1522 1526 1522 1513 1524 1498 1488 1488 1489 1491 1492 1492 1491 1489 1488 1487 1486 1485 1484 1484 1484 1484 1484 1484 1485 1486 1485 1484 1482 1482 1485 1486 1487 1488 1488
1521 1519 1522 1524 1522 1522 1521 1520 1522 1523 1526 1526 1514 1519 1504 1486 1490 1490 1490 1492 1492 1492 1490 1489 1487 1485 1483 1482 1481 1481 1481 1481 1482 1481 1481 1481 1479 1478 1480 1481 1480 1480 1479 1479
1518 1519 1521 1521 1522 1522 1521 1521 1519 1522 1526 1531 1509 1513 1508 1488 1488 1489 1490 1492 1493 1492 1491 1489 1487 1485 1482 1480 1479 1478 1477 1477 1477 1477 1476 1475 1474 1474 1474 1474 1473 1473 1472 1471
1515 1518 1520 1521 1522 1522 1523 1525 1527 1529 1535 1525 1505 1509 1505 1487 1485 1487 1490 1492 1493 1492 1491 1489 1487 1485 1482 1480 1478 1476 1475 1474 1473 1473 1472 1471 1470 1469 1468 1467 1467 1466 1465 1463
1517 1521 1519 1520 1520 1523 1519 1523 1533 1537 1528 1518 1506 1511 1496 1483 1484 1487 1490 1492 1492 1491 1490 1489 1488 1486 1483 1481 1478 1476 1474 1472 1470 1469 1467 1466 1465 1463 1461 1460 1460 1459 1457 1456
1517 1518 1518 1517 1518 1520 1519 1519 1519 1528 1525 1527 1512 1495 1485 1481 1484 1487 1489 1490 1490 1490 1490 1489 1488 1486 1483 1481 1478 1476 1473 1471 1469 1466 1464 1462 1460 1457 1455 1453 1452 1450 1449 1448
1516 1520 1516 1519 1520 1521 1521 1521 1524 1528 1533 1531 1510 1500 1496 1486 1487 1487 1488 1489 1489 1489 1489 1488 1487 1486 1483 1481 1478 1475 1472 1470 1467 1464 1461 1458 1455 1452 1449 1447 1444 1442 1440 1439
1516 1521 1518 1519 1520 1516 1523 1523 1522 1523 1521 1530 1527 1510 1485 1485 1485 1486 1488 1488 1489 1488 1488 1487 1486 1485 1482 1480 1477 1474 1470 1467 1464 1460 1457 1454 1450 1447 1444 1440 1437 1434 1432 1430
1516 1519 1520 1511 1508 1508 1510 1513 1517 1527 1522 1517 1523 1511 1482 1481 1483 1486 1487 1488 1488 1487 1487 1486 1484 1482 1480 1477 1474 1471 1468 1464 1460 1456 1453 1449 1445 1441 1437 1434 1430 1427 1424 1421
1516 1521 1525 1515 1518 1515 1514 1512 1512 1516 1519 1521 1524 1510 1482 1481 1483 1486 1486 1487 1486 1486 1485 1484 1482 1480 1477 1474 1471 1468 1464 1460 1456 1452 1448 1444 1440 1435 1431 1427 1423 1419 1415 1412
1518 1520 1523 1523 1515 1511 1512 1510 1509 1514 1519 1516 1510 1498 1488 1485 1485 1485 1485 1485 1485 1484 1483 1481 1478 1476 1474 1471 1467 1464 1460 1456 1451 1447 1442 1438 1434 1429 1425 1420 1416 1411 1407 1403
1518 1521 1516 1512 1508 1507 1507 1506 1505 1506 1505 1506 1497 1494 1487 1485 1485 1485 1485 1484 1483 1481 1479 1477 1475 1472 1470 1466 1462 1458 1454 1450 1446 1441 1437 1432 1427 1422 1417 1412 1407 1403 1398 1394
1517 1519 1516 1513 1508 1506 1503 1497 1496 1496 1495 1494 1492 1489 1482 1484 1484 1484 1484 1483 1481 1478 1476 1474 1471 1469 1465 1461 1457 1453 1449 1445 1441 1436 1430 1425 1420 1415 1409 1404 1399 1393 1388 1384
1514 1517 1518 1517 1508 1507 1504 1488 1487 1487 1484 1486 1489 1486 1482 1483 1483 1484 1483 1481 1478 1476 1473 1471 1468 1464 1460 1456 1452 1448 1443 1439 1435 1430 1424 1419 1413 1407 1401 1396 1390 1384 1379 1374
1510 1513 1517 1518 1514 1519 1495 1479 1479 1482 1483 1483 1482 1482 1482 1483 1483 1483 1481 1479 1476 1473 1470 1467 1463 1459 1455 1451 1447 1443 1438 1434 1428 1423 1417 1412 1406 1399 1393 1387 1381 1376 1371 1365
1507 1511 1515 1518 1518 1506 1488 1481 1480 1483 1484 1481 1481 1482 1482 1481 1479 1479 1479 1476 1473 1470 1466 1462 1458 1454 1450 1446 1442 1437 1432 1427 1421 1416 1410 1405 1399 1392 1386 1379 1373 1368 1363 1357
1508 1509 1515 1516 1519 1513 1487 1484 1482 1485 1487 1484 1482 1482 1482 1480 1481 1478 1476 1473 1470 1466 1462 1458 1453 1449 1446 1441 1437 1432 1426 1420 1415 1409 1403 1398 1392 1385 1378 1372 1366 1361 1356 1350
1510 1512 1515 1515 1514 1500 1483 1483 1484 1492 1489 1484 1482 1481 1481 1480 1479 1475 1471 1468 1465 1461 1457 1453 1449 1445 1441 1437 1432 1426 1420 1414 1409 1403 1396 1390 1384 1378 1371 1365 1360 1354 1349 1343
1501 1506 1507 1507 1509 1501 1483 1483 1485 1485 1481 1480 1479 1478 1477 1476 1473 1470 1467 1463 1460 1456 1452 1449 1445 1440 1436 1432 1426 1419 1413 1408 1401 1395 1388 1382 1376 1370 1364 1358 1353 1348 1342 1336
1490 1489 1489 1490 1490 1481 1481 1481 1481 1480 1479 1478 1477 1476 1474 1471 1468 1465 1462 1459 1456 1452 1449 1445 1440 1435 1430 1425 1420 1413 1406 1400 1393 1386 1380 1374 1368 1363 1357 1352 1346 1341 1336 1330
1483 1482 1485 1485 1479 1478 1478 1479 1478 1477 1477 1475 1474 1472 1469 1467 1464 1461 1458 1455 1452 1448 1444 1440 1435 1429 1422 1418 1413 1407 1399 1392 1385 1378 1372 1366 1361 1355 1350 1345 1340 1335 1330 1324
1484 1483 1483 1482 1479 1477 1476 1477 1476 1474 1473 1471 1469 1468 1465 1463 1460 1457 1454 1451 1448 1444 1440 1435 1429 1422 1416 1410 1404 1398 1392 1385 1378 1371 1365 1359 1354 1348 1342 1338 1334 1329 1324 1320
1482 1483 1483 1480 1478 1478 1476 1475 1473 1471 1470 1468 1466 1463 1461 1459 1457 1454 1450 1447 1443 1439 1434 1428 1422 1416 1409 1402 1395 1390 1385 1379 1372 1364 1358 1352 1346 1341 1336 1330 1325 1322 1318 1313